Orbital Elements at Epoch 2459200.5 (2020-Dec-17.0) TDB
Reference: JPL 14 (heliocentric ecliptic J2000)
Element | Value | Uncertainty (1-sigma) | Units |
e | .3523323894194927 | 4.4473e-08 | |
a | 2.553000725508822 | 3.3319e-08 | au |
q | 1.6534958797006 | 1.0887e-07 | au |
i | 7.283207040373762 | 1.2233e-05 | deg |
node | 78.14758488031781 | 3.8505e-05 | deg |
peri | 276.9360481217767 | 6.6135e-05 | deg |
M | 59.68557879473497 | 6.3295e-05 | deg |
tp | 2458953.474524931554 (2020-Apr-13.97452493) | 0.00026113 | TDB |
period | 1489.960771436554 4.08 | 2.9168e-05 7.986e-08 | d yr |
n | .2416170995246432 | 4.7299e-09 | deg/d |
Q | 3.452505571317044 | 4.5058e-08 | au |
|
| | Orbit Determination Parameters
Additional Information
|